Torna al catalogo

FENGYUN 1C DEB *

AttivoSSO
NORAD 46990·DEBRIS·🇨🇳 China

Lanciato May 10, 1999 da Taiyuan Satellite Launch Center

Loading…

Prossimi Passaggi (prossime 24 ore)

TLE

ObsoletoSource: Space-Track

Epoca: Sep 2, 2026, 19:36 UTC

1 46990U 99025EZQ 26245.81681813  .00006286  00000-0  12852-2 0  9990
2 46990  98.2185  80.5021 0330231 356.7249  14.9936 14.32077370123009

Traccia FENGYUN 1C DEB * in tempo reale con AllMySat

Download on the App Store